Wind_Speed
65 64 57 67 63 60 60 65 71 76 88 90 84 81 83 84 85 85 87 89 94 98 101 105 110 101 99 103 106 102 99 100 103 100 99 96 97 93 88 48 48 45 51 45
68 59 63 68 68 63 63 57 60 68 74 88 87 84 81 79 81 82 82 79 78 82 90 95 100 101 95 95 96 100 102 102 104 107 106 103 100 96 96 93 75 64 65 53
74 64 73 69 71 62 60 54 55 60 66 74 88 86 80 81 82 81 79 77 76 78 79 80 84 83 86 88 92 93 98 101 102 105 105 106 92 91 95 103 102 94 90 91
73 71 70 68 68 62 56 58 58 60 63 65 72 81 82 87 85 82 78 74 74 75 77 76 77 75 75 77 79 84 89 96 100 101 101 107 110 105 101 100 106 108 112 108
66 66 64 67 66 63 57 61 59 61 63 58 59 65 74 87 85 83 81 80 75 72 72 71 72 72 73 74 76 76 76 80 85 91 101 108 110 112 110 112 114 116 117 121
59 61 62 63 68 63 63 64 60 60 60 53 53 54 60 71 83 84 83 80 78 76 74 70 68 67 67 68 68 71 72 74 76 80 85 87 90 96 104 112 120 125 126 124
51 55 60 66 66 64 61 61 61 57 55 47 42 43 50 59 66 76 83 83 81 75 73 71 69 67 70 71 73 73 72 73 74 75 77 77 79 83 88 92 98 103 109 111
54 56 56 58 60 60 58 58 52 47 48 51 53 42 47 52 55 59 70 77 79 78 76 74 69 68 67 67 69 68 68 72 75 76 77 78 80 81 84 89 96 101 105 108
51 53 58 62 61 61 59 52 52 50 56 54 51 47 48 45 43 48 58 66 68 71 77 75 73 71 71 70 69 69 69 69 69 70 72 75 77 81 85 90 94 100 105 108
47 59 59 59 63 65 59 56 56 54 49 45 48 49 46 46 44 41 51 58 53 55 61 61 62 69 70 71 70 70 70 72 72 71 73 75 77 80 86 93 98 102 106 110
47 53 63 64 65 61 57 58 57 55 50 47 48 45 48 47 47 47 46 46 43 45 52 58 59 62 65 64 65 66 68 68 66 64 65 68 72 79 83 84 87 89 94 99
44 49 54 55 57 57 56 57 55 52 45 38 43 40 42 40 41 42 40 37 35 28 43 47 49 51 55 57 58 63 65 64 62 61 61 65 68 67 66 64 64 66 68 72
43 40 49 50 53 50 48 46 47 49 46 40 35 36 42 39 37 31 32 27 10 35 49 44 52 46 47 53 58 58 53 52 53 56 59 59 57 56 53 49 42 35 36 41
34 34 36 42 38 39 42 43 42 44 37 37 31 37 39 34 37 38 31 29 53 50 48 47 53 51 58 58 56 56 53 54 56 56 54 53 52 50 44 41 38 35 33 31
43 34 35 35 38 40 45 47 43 42 38 40 35 43 39 38 40 35 32 33 54 52 50 56 48 39 50 50 50 50 51 54 55 54 51 51 49 47 44 42 40 39 36 34
37 36 37 41 41 41 41 40 40 36 39 44 39 41 37 39 40 36 35 37 44 57 68 66 63 60 46 49 51 53 53 55 54 54 51 50 49 46 42 41 39 38 38 36
36 39 40 41 36 34 35 33 34 38 45 45 41 40 42 45 35 33 36 44 44 57 66 63 61 61 60 56 55 56 55 54 55 55 54 52 51 49 48 48 45 41 41 41
39 40 42 36 32 23 25 25 42 43 44 43 41 38 37 29 31 31 36 43 54 65 67 67 66 66 64 66 60 58 57 56 56 57 55 53 53 52 51 51 47 45 45 45
45 41 41 43 35 37 38 43 41 40 45 43 36 34 36 38 39 40 42 45 50 49 50 55 56 57 59 60 61 63 63 63 61 59 59 58 57 55 54 52 50 49 49 51
42 45 46 47 46 52 54 54 46 39 44 43 39 37 37 42 49 47 48 48 50 49 48 51 54 56 57 60 63 64 64 64 63 63 62 61 59 57 56 55 54 53 53 53
39 42 46 52 56 55 57 62 57 50 42 41 41 40 41 43 44 48 49 51 50 52 55 58 61 64 64 64 64 64 66 67 69 67 64 62 60 57 57 57 55 53 56 54
49 44 46 55 53 53 50 50 47 39 42 45 42 40 38 40 43 44 45 47 50 51 52 54 56 58 60 64 67 69 72 74 74 73 70 68 64 64 62 61 58 56 51 50
49 44 45 51 52 53 51 49 48 47 46 47 43 39 39 41 43 42 43 44 46 47 47 47 48 48 47 48 52 54 53 53 53 54 54 55 55 55 54 57 55 53 50 48
53 51 46 49 50 48 50 52 51 48 42 38 39 39 40 43 43 42 44 46 47 46 47 47 47 48 49 52 52 49 47 42 40 38 37 37 38 39 40 40 40 39 36 34
57 54 54 51 51 52 51 48 45 42 44 46 46 45 41 42 42 42 43 43 45 45 46 48 47 47 47 47 42 39 35 32 28 25 24 24 24 23 23 23 23 21 20 17
54 51 54 57 56 53 50 47 44 38 35 36 33 36 37 41 38 35 36 39 41 41 41 40 39 40 39 35 32 28 23 20 17 16 14 14 12 9 7 8 9 10 7 13
Wind_Direction
266 266 270 259 257 257 251 241 238 238 240 239 240 239 239 240 242 242 242 241 240 239 238 247 250 247 250 250 251 250 250 251 251 252 254 252 252 250 246 247 242 245 244 253
273 273 264 255 252 252 252 247 241 238 241 240 239 240 240 239 242 241 241 241 241 243 243 243 245 249 248 247 247 249 250 249 250 252 254 257 256 254 251 249 246 251 260 249
267 265 257 254 250 249 251 250 244 243 242 241 239 238 239 242 241 243 242 242 242 243 245 246 246 248 249 248 248 246 246 248 248 249 252 253 255 253 254 247 247 249 251 255
262 266 256 248 245 245 248 247 243 242 245 241 241 240 237 241 241 243 244 242 241 242 244 246 247 248 249 250 249 248 247 246 249 249 247 248 252 252 252 254 255 255 255 251
261 248 240 239 237 238 241 242 242 241 245 243 242 240 239 239 240 242 243 243 243 243 244 246 249 249 249 251 252 251 251 250 248 250 249 249 249 252 254 253 253 255 257 258
242 236 235 230 232 234 236 239 239 238 241 247 250 243 242 242 242 242 243 243 244 245 245 246 248 250 251 250 252 253 253 253 252 251 252 253 252 252 254 256 256 256 257 258
231 231 227 226 228 232 236 241 241 243 244 245 250 247 242 242 243 243 243 243 244 243 246 247 249 251 253 253 252 251 253 253 255 255 256 257 257 257 257 257 257 259 261 261
222 220 221 226 228 231 235 239 243 241 240 237 237 242 237 243 242 245 246 243 244 245 244 244 246 249 250 251 253 255 256 257 258 259 260 261 261 261 262 262 260 258 259 260
215 213 214 216 220 225 229 231 237 235 230 233 232 238 249 253 251 250 248 247 241 247 248 246 246 250 250 250 253 256 257 258 258 258 260 262 264 266 266 266 268 267 264 263
212 214 209 213 217 220 222 222 227 233 232 231 233 238 247 252 253 257 256 252 249 244 250 249 249 247 249 251 253 255 256 257 258 261 264 267 270 273 275 275 273 271 269 267
209 216 215 211 214 217 222 225 228 229 228 224 231 234 242 249 257 254 250 250 250 243 245 252 249 246 247 251 253 254 253 254 257 260 264 269 273 275 277 277 274 270 267 265
204 209 217 216 213 218 222 222 225 232 232 231 236 235 245 250 249 250 254 251 247 245 246 251 249 244 245 247 249 251 254 257 259 262 267 272 278 279 280 281 279 274 269 267
198 204 211 214 215 212 218 222 225 227 228 229 230 231 234 237 240 223 242 235 164 242 252 262 256 246 245 246 248 252 254 257 261 266 270 276 280 281 287 286 285 286 280 274
209 201 210 213 209 208 212 213 216 223 225 225 234 233 236 240 242 234 237 226 167 199 220 240 248 252 244 246 250 252 252 255 258 262 268 273 276 279 286 290 290 290 293 295
204 209 199 199 198 199 204 208 211 217 222 235 225 232 242 244 242 240 231 221 197 198 216 228 240 241 238 243 251 257 257 256 258 263 268 272 275 280 280 283 287 291 292 293
190 184 194 191 189 197 206 211 220 223 222 226 231 238 245 244 238 242 237 220 213 215 226 237 240 241 247 256 255 257 258 258 261 262 265 268 270 274 276 279 281 285 286 287
186 185 194 198 186 198 205 208 218 221 222 222 228 237 236 242 247 243 244 233 223 219 225 234 243 251 264 263 257 260 263 262 262 265 268 268 269 271 274 277 282 285 287 287
182 185 185 170 175 196 213 222 227 227 229 227 228 228 258 264 259 249 242 234 234 231 238 245 253 259 265 260 262 266 267 266 266 268 268 270 272 274 277 278 278 283 286 286
174 184 184 185 177 171 160 170 209 210 231 240 238 242 250 255 259 259 253 252 250 251 250 255 259 259 260 262 261 263 265 267 268 269 268 270 272 273 275 276 278 285 289 290
175 181 186 184 182 182 184 193 207 213 234 237 239 239 247 248 250 253 256 257 260 263 264 262 264 267 268 269 269 269 269 269 270 270 271 271 271 272 274 276 278 283 288 292
194 185 190 202 204 200 201 209 224 239 240 231 230 241 244 250 255 257 257 256 256 256 258 261 265 268 270 270 270 271 272 272 272 273 273 273 272 272 273 276 279 283 288 288
176 193 195 201 207 208 216 222 224 225 231 244 255 261 259 257 255 255 257 259 261 262 262 266 270 271 271 273 273 273 271 272 273 273 273 272 272 274 275 277 278 280 281 285
185 191 200 207 213 213 217 220 227 233 245 257 263 260 259 260 260 261 262 261 262 264 267 269 273 277 279 280 281 281 283 281 279 277 274 272 271 269 268 268 270 274 277 281
200 203 203 206 209 218 220 226 233 242 245 252 259 258 259 262 264 262 264 264 264 265 267 268 271 274 280 284 285 285 284 283 279 277 274 270 265 263 261 260 261 263 272 283
209 213 214 218 219 220 226 230 236 247 251 254 256 250 258 262 265 267 263 265 267 266 267 269 271 276 279 282 283 283 284 283 283 279 270 263 260 256 250 246 249 260 267 272
213 217 221 224 229 234 237 241 245 249 254 266 272 257 259 259 260 266 268 267 266 266 268 272 276 278 277 278 280 282 281 280 276 265 253 247 238 229 208 195 194 206 252 296
Height
10618 10622 10632 10629 10630 10631 10634 10641 10651 10661 10662 10669 10686 10698 10702 10708 10717 10727 10736 10749 10759 10768 10769 10772 10787 10794 10813 10822 10822 10827 10830 10831 10834 10840 10843 10843 10838 10850 10863 10862 10856 10857 10860 10858
10599 10615 10607 10605 10609 10614 10619 10629 10640 10640 10646 10657 10669 10680 10689 10698 10699 10708 10717 10731 10742 10748 10750 10758 10768 10776 10790 10794 10802 10804 10808 10808 10812 10815 10821 10824 10824 10831 10837 10841 10842 10839 10838 10844
10577 10587 10578 10584 10591 10601 10609 10619 10621 10626 10628 10635 10648 10662 10679 10678 10680 10690 10703 10720 10730 10731 10733 10741 10751 10761 10771 10775 10779 10781 10782 10785 10794 10800 10803 10805 10806 10808 10812 10820 10822 10820 10821 10828
10554 10555 10560 10565 10576 10586 10598 10601 10603 10609 10610 10624 10633 10652 10659 10653 10667 10677 10690 10705 10712 10716 10718 10726 10735 10747 10754 10754 10758 10761 10766 10774 10775 10780 10788 10780 10782 10792 10793 10796 10792 10794 10796 10806
10536 10527 10536 10547 10562 10568 10584 10582 10588 10593 10598 10609 10624 10633 10639 10638 10652 10663 10675 10685 10696 10703 10707 10714 10720 10730 10737 10740 10741 10744 10751 10751 10759 10766 10765 10764 10769 10776 10775 10775 10775 10774 10773 10776
10500 10506 10518 10534 10539 10553 10560 10565 10573 10579 10588 10605 10611 10623 10621 10627 10637 10649 10657 10669 10679 10689 10695 10703 10709 10713 10717 10723 10730 10729 10732 10733 10737 10740 10740 10743 10750 10753 10752 10752 10750 10745 10746 10757
10479 10493 10503 10514 10526 10537 10546 10553 10562 10571 10584 10599 10600 10608 10614 10612 10620 10629 10640 10651 10661 10679 10683 10688 10693 10699 10702 10705 10709 10714 10718 10720 10721 10724 10723 10726 10730 10732 10730 10729 10728 10727 10724 10729
10459 10472 10491 10506 10518 10527 10536 10543 10555 10567 10574 10580 10581 10596 10598 10598 10609 10612 10619 10634 10646 10656 10665 10673 10680 10681 10686 10688 10690 10699 10703 10704 10705 10708 10710 10710 10711 10714 10711 10706 10704 10704 10703 10702
10446 10464 10473 10483 10499 10509 10522 10536 10543 10548 10552 10565 10578 10581 10586 10595 10600 10601 10599 10608 10631 10642 10647 10658 10667 10668 10670 10672 10676 10680 10683 10686 10690 10692 10693 10692 10694 10692 10691 10688 10684 10679 10675 10675
10438 10444 10458 10472 10482 10491 10507 10518 10523 10533 10546 10561 10566 10572 10579 10581 10590 10598 10588 10597 10620 10632 10632 10640 10649 10650 10652 10654 10660 10664 10667 10670 10673 10677 10677 10676 10675 10674 10669 10664 10661 10655 10650 10647
10425 10437 10444 10454 10465 10484 10499 10507 10515 10524 10535 10549 10555 10568 10567 10575 10579 10582 10585 10590 10607 10616 10621 10621 10630 10635 10634 10639 10645 10648 10649 10652 10657 10661 10660 10661 10660 10658 10654 10644 10636 10629 10622 10617
10416 10430 10440 10455 10465 10476 10487 10495 10508 10520 10531 10541 10544 10557 10557 10564 10569 10574 10578 10588 10596 10605 10606 10606 10616 10622 10626 10629 10629 10629 10634 10640 10643 10643 10645 10645 10643 10638 10632 10624 10613 10605 10598 10594
10409 10427 10434 10446 10455 10470 10484 10495 10508 10513 10519 10531 10538 10544 10549 10555 10560 10566 10572 10584 10598 10601 10594 10591 10600 10613 10614 10613 10612 10618 10624 10626 10627 10629 10628 10627 10625 10621 10615 10608 10599 10592 10586 10581
10406 10420 10430 10445 10460 10469 10479 10488 10499 10506 10517 10522 10532 10533 10537 10546 10551 10559 10570 10577 10583 10586 10580 10579 10586 10591 10594 10600 10604 10607 10611 10613 10612 10614 10616 10614 10611 10609 10603 10598 10592 10587 10582 10578
10406 10418 10427 10440 10451 10464 10474 10483 10490 10500 10507 10512 10523 10522 10529 10534 10540 10549 10558 10566 10570 10561 10568 10568 10575 10575 10576 10586 10591 10595 10597 10598 10599 10600 10600 10599 10597 10594 10591 10587 10583 10580 10575 10572
10406 10416 10426 10436 10447 10458 10469 10478 10486 10497 10502 10504 10512 10515 10522 10525 10533 10540 10549 10554 10557 10561 10561 10564 10562 10560 10572 10579 10579 10578 10581 10584 10585 10585 10585 10585 10582 10581 10579 10577 10574 10572 10568 10563
10407 10416 10428 10438 10450 10458 10467 10475 10483 10489 10491 10497 10504 10508 10510 10515 10528 10539 10544 10548 10553 10555 10549 10549 10550 10557 10560 10560 10561 10565 10568 10569 10569 10570 10570 10569 10568 10568 10566 10564 10562 10561 10557 10554
10407 10416 10427 10438 10447 10457 10466 10473 10476 10479 10481 10490 10496 10499 10506 10515 10516 10525 10529 10533 10537 10535 10540 10541 10542 10544 10545 10546 10549 10549 10551 10552 10554 10554 10554 10554 10554 10553 10551 10550 10549 10548 10545 10543
10407 10417 10428 10435 10440 10452 10460 10465 10464 10471 10472 10482 10496 10502 10502 10502 10507 10511 10514 10515 10514 10522 10533 10533 10529 10528 10528 10531 10533 10534 10535 10536 10536 10537 10537 10538 10538 10537 10536 10536 10534 10534 10531 10528
10407 10416 10427 10431 10435 10445 10447 10452 10461 10470 10470 10480 10489 10496 10499 10499 10496 10499 10501 10505 10508 10512 10516 10516 10516 10516 10515 10515 10516 10516 10517 10517 10518 10519 10519 10520 10521 10521 10521 10520 10521 10521 10519 10514
10406 10413 10423 10425 10433 10444 10447 10449 10456 10465 10468 10472 10480 10485 10491 10492 10493 10491 10494 10495 10500 10503 10506 10504 10503 10503 10503 10502 10500 10499 10499 10499 10499 10500 10501 10501 10503 10505 10505 10505 10507 10507 10505 10502
10403 10411 10418 10420 10429 10437 10443 10450 10457 10461 10457 10460 10471 10478 10481 10482 10483 10483 10486 10487 10489 10492 10494 10491 10489 10488 10487 10485 10483 10482 10481 10481 10480 10479 10479 10481 10483 10487 10490 10490 10493 10493 10491 10490
10396 10404 10413 10419 10427 10432 10437 10443 10449 10454 10454 10456 10461 10466 10469 10471 10472 10474 10475 10476 10477 10477 10479 10479 10476 10473 10473 10471 10468 10465 10463 10461 10459 10458 10458 10459 10461 10465 10469 10472 10476 10479 10479 10479
10394 10399 10408 10414 10421 10427 10434 10438 10444 10449 10452 10453 10454 10456 10459 10460 10462 10464 10465 10465 10466 10466 10466 10466 10466 10464 10461 10458 10454 10451 10449 10447 10445 10444 10444 10444 10445 10448 10452 10457 10463 10467 10470 10471
10389 10398 10404 10410 10415 10420 10426 10432 10438 10441 10443 10445 10447 10450 10451 10452 10453 10454 10454 10454 10455 10455 10454 10454 10454 10453 10450 10446 10443 10441 10439 10437 10435 10435 10434 10435 10436 10439 10442 10448 10453 10459 10463 10464
10387 10394 10400 10406 10409 10415 10422 10426 10430 10433 10434 10436 10439 10441 10442 10443 10445 10444 10444 10444 10444 10443 10442 10443 10443 10442 10439 10437 10435 10433 10432 10430 10429 10428 10429 10430 10432 10435 10439 10444 10450 10455 10459 10459